[[{"header":{"parameterUnit":"m.s-1","parameterCategory":1,"la1":30.2991,"la2":30.254,"lo1":-89.0895,"lo2":-89.0444,"dy":0.0017,"dx":0.0017,"nx":28,"ny":28,"refTime":"2025-06-16T03:00:00:Z","depth":0,"parameterNumber":2,"parameterNumberName":"U-component_of_WINDS"},"data":[0,0,0,0,0,0,0,0,0,0,0,0,0,0,0,0,0,0,0,0,0,0,0,0,0,0,0,0,0,0,0,0,0,0,0,0,0,0,0,0,0,0,0,0,0,0,0,0,0,0,0,0,0,0,0,0,0,0,1.0905,1.0905,0,1.0953,1.0954,1.0954,1.0959,1.0959,1.0958,1.0958,1.1008,1.101,1.1012,0,0,0,0,0,0,0,0,0,0,0,0,0,1.0815,1.0817,1.0904,1.0905,1.0906,1.0953,1.0954,1.0954,1.096,1.0959,1.0958,1.0958,1.1008,1.101,1.1012,0,0,0,0,0,0,0,0,0,0,0,0,0,1.0858,1.0817,1.0904,1.0914,1.0915,1.0953,1.0954,1.0955,1.096,1.0959,1.0958,1.0957,1.1007,1.1009,1.1012,1.1044,0,0,1.102,1.1022,0,0,0,0,0,0,0,0,1.0856,1.0861,1.0912,1.0913,1.0915,1.0949,1.0941,1.0985,1.096,1.0943,1.0958,1.0957,1.0989,1.0993,1.1004,1.1046,1.1048,1.1021,1.1022,1.1023,1.1024,0,0,0,0,0,0,0,1.0853,1.0859,1.0924,1.0913,1.0914,1.0916,1.0921,1.0949,1.097,1.0944,1.0945,1.095,1.099,1.1001,1.1005,1.1049,1.1021,1.1023,1.1025,1.1026,1.1118,1.1119,0,0,0,0,0,0,1.0848,1.0857,1.0922,1.0925,1.0883,1.0918,1.0924,1.0939,1.0969,1.0973,1.0951,1.095,1.0997,1.1002,1.1007,1.1045,1.1023,1.1026,1.1027,1.1117,1.1118,1.1119,0,0,0,0,0,0,1.0846,1.0854,1.092,1.0891,1.09,1.092,1.0937,1.094,1.0952,1.0974,1.0978,1.0959,1.0997,1.1003,1.1034,1.1047,1.1027,1.103,1.1116,1.1118,1.1119,1.1123,0,0,0,0,0,0,1.0843,1.0853,1.0865,1.0891,1.0901,1.0947,1.0938,1.0942,1.0957,1.0956,1.0983,1.0987,1.0997,1.103,1.1037,1.1051,1.1032,1.1115,1.1117,1.1119,1.1122,1.1124,1.1126,0,0,0,0,0,1.084,1.0865,1.0866,1.0874,1.0917,1.0948,1.0953,1.0964,1.0958,1.097,1.0984,1.0986,1.1045,1.1033,1.1041,1.1056,1.1115,1.1117,1.1118,1.1121,1.1123,1.1126,0,0,0,0,0,0,1.084,1.0868,1.087,1.0904,1.0923,1.0948,1.0964,1.0967,1.0989,1.0988,1.1001,1.1007,1.1037,1.1049,1.1036,1.1087,1.1079,1.1083,1.1078,1.1081,1.1083,1.1079,1.1034,0,0,0,0,0,1.0844,1.0866,1.089,1.0917,1.0927,1.0944,1.0958,1.0964,1.0985,1.0993,1.101,1.103,1.1053,1.1068,1.109,1.1123,1.1129,1.1137,1.1139,1.1141,1.1144,1.1162,1.1165,1.1126,1.1126,1.1126,0,0,1.0852,1.087,1.0884,1.0918,1.0934,1.0956,1.0951,1.0975,1.0992,1.0997,1.1027,1.104,1.1063,1.1095,1.111,1.1106,1.1156,1.1143,1.1145,1.1147,1.1164,1.1168,1.1171,1.1127,1.1127,1.1126,0,0,1.0879,1.0895,1.0919,1.0935,1.0959,1.097,1.0976,1.1,1.1009,1.1039,1.1043,1.1063,1.1103,1.1119,1.1132,1.1164,1.1166,1.1171,1.1182,1.1199,1.1203,1.1205,1.1216,1.122,1.1173,1.1173,1.1173,0,1.0886,1.092,1.0931,1.0955,1.097,1.0975,1.0999,1.1014,1.1044,1.1054,1.105,1.1099,1.1115,1.115,1.1158,1.1168,1.1175,1.1168,1.1201,1.1204,1.1207,1.1217,1.1221,1.1174,1.1174,1.1174,1.1174,0,1.0927,1.0951,1.0968,1.0996,1.1013,1.1037,1.1051,1.1067,1.1072,1.1083,1.1113,1.1133,1.1159,1.1168,1.1173,1.1204,1.1201,1.1199,1.119,1.1211,1.1221,1.1225,1.1174,1.1174,1.1174,1.1174,0,0,1.0956,1.0989,1.0995,1.1008,1.1034,1.1053,1.1077,1.1102,1.1114,1.1135,1.1155,1.1188,1.1186,1.1201,1.1208,1.1223,1.1246,1.1219,1.122,1.1223,1.128,1.1281,1.1285,1.1247,1.1248,1.1249,1.1278,0,1.0985,1.1028,1.1038,1.1075,1.1096,1.1101,1.1122,1.114,1.1151,1.1171,1.1183,1.1206,1.1202,1.1211,1.1226,1.124,1.1257,1.1238,1.1266,1.1267,1.1259,1.1291,1.1292,1.1318,1.1282,1.1282,1.1283,0,1.1024,1.1045,1.1084,1.1107,1.1116,1.1135,1.1158,1.1177,1.1198,1.1205,1.1221,1.1226,1.1251,1.1242,1.1276,1.1262,1.1274,1.1283,1.1284,1.1287,1.1276,1.1294,1.1327,1.1331,1.1289,1.1289,1.1288,0,1.104,1.1078,1.1105,1.1116,1.1144,1.1156,1.1169,1.1188,1.1203,1.1223,1.1232,1.1255,1.1268,1.1286,1.1297,1.1289,1.133,1.1322,1.1336,1.1336,1.1344,1.1343,1.138,1.1353,1.1353,1.1353,1.1352,0,1.1071,1.1094,1.1113,1.113,1.1156,1.1167,1.1193,1.1205,1.1222,1.1242,1.1247,1.1265,1.128,1.1299,1.1308,1.1335,1.1341,1.1347,1.1349,1.1346,1.1345,1.1354,1.1352,1.1354,1.1353,1.1353,1.1353,0,1.1093,1.1106,1.1137,1.116,1.1166,1.1185,1.1204,1.1221,1.1232,1.1256,1.1262,1.128,1.1303,1.1316,1.1346,1.1352,1.1381,1.1383,1.1374,1.1375,1.1388,1.1387,1.1431,1.1437,1.1407,1.1407,1.1407,0,1.1111,1.1129,1.1155,1.1168,1.118,1.1201,1.1216,1.1228,1.1242,1.1266,1.128,1.1304,1.1323,1.136,1.1375,1.1398,1.14,1.1414,1.1403,1.1399,1.1399,1.1398,1.1399,1.1415,1.1416,1.1416,1.1416,0,1.1143,1.1149,1.1169,1.1192,1.1209,1.1227,1.1245,1.1256,1.1271,1.1287,1.1311,1.1326,1.1356,1.1379,1.1402,1.1415,1.1418,1.1419,1.1424,1.1421,1.1415,1.1417,1.1379,1.1418,1.1418,1.1418,1.1418,1.1418,1.1164,1.1179,1.1199,1.1222,1.1237,1.1253,1.127,1.1283,1.1303,1.1328,1.1334,1.1359,1.1378,1.141,1.1423,1.1442,1.144,1.1446,1.1448,1.1449,1.1449,1.1412,1.1447,1.1447,1.1447,1.1446,1.1446,0,1.1195,1.1208,1.1228,1.1253,1.1271,1.1272,1.1292,1.1307,1.1329,1.1346,1.1365,1.1392,1.1415,1.1431,1.1454,1.1467,1.1468,1.1472,1.1471,1.1474,1.145,1.1444,1.147,1.147,1.147,1.147,1.147,1.147,1.1213,1.124,1.1248,1.1281,1.1294,1.1319,1.133,1.1345,1.1359,1.1389,1.1408,1.1419,1.1436,1.146,1.148,1.1484,1.1492,1.1496,1.15,1.1478,1.1475,1.1473,1.1467,1.1497,1.1497,1.1521,1.1522,1.1522]},{"header":{"parameterUnit":"m.s-1","parameterCategory":1,"la1":30.2991,"la2":30.254,"lo1":-89.0895,"lo2":-89.0444,"dy":0.0017,"dx":0.0017,"nx":28,"ny":28,"refTime":"2025-06-16T03:00:00:Z","depth":0,"parameterNumber":3,"parameterNumberName":"V-component_of_WINDS"},"data":[0,0,0,0,0,0,0,0,0,0,0,0,0,0,0,0,0,0,0,0,0,0,0,0,0,0,0,0,0,0,0,0,0,0,0,0,0,0,0,0,0,0,0,0,0,0,0,0,0,0,0,0,0,0,0,0,0,0,4.1454,4.1454,0,4.1493,4.1494,4.1494,4.15,4.15,4.1499,4.1499,4.1534,4.1536,4.1537,0,0,0,0,0,0,0,0,0,0,0,0,0,4.1379,4.1381,4.1454,4.1454,4.1455,4.1493,4.1494,4.1494,4.15,4.15,4.1499,4.1499,4.1534,4.1535,4.1537,0,0,0,0,0,0,0,0,0,0,0,0,0,4.1414,4.1381,4.1454,4.1463,4.1464,4.1493,4.1494,4.1494,4.15,4.15,4.1499,4.1499,4.1533,4.1535,4.1537,4.1559,0,0,4.1543,4.1544,0,0,0,0,0,0,0,0,4.1412,4.1417,4.1461,4.1462,4.1463,4.1491,4.148,4.1516,4.15,4.1486,4.1499,4.1498,4.152,4.1523,4.1531,4.1561,4.1562,4.1543,4.1544,4.1545,4.1546,0,0,0,0,0,0,0,4.141,4.1415,4.1469,4.1461,4.1463,4.1463,4.1467,4.1487,4.1505,4.1487,4.1488,4.1493,4.1521,4.153,4.1532,4.1563,4.1543,4.1545,4.1546,4.1547,4.1612,4.1613,0,0,0,0,0,0,4.1407,4.1413,4.1468,4.1471,4.1436,4.1465,4.147,4.1483,4.1505,4.1508,4.1493,4.1493,4.1527,4.153,4.1534,4.1561,4.1545,4.1547,4.1548,4.1611,4.1612,4.1613,0,0,0,0,0,0,4.1405,4.1412,4.1466,4.1442,4.1449,4.1467,4.1481,4.1484,4.1493,4.151,4.1512,4.1499,4.1526,4.1531,4.1553,4.1562,4.1548,4.1549,4.1611,4.1612,4.1612,4.1616,0,0,0,0,0,0,4.1403,4.1411,4.142,4.1442,4.1451,4.1487,4.1482,4.1485,4.1497,4.1497,4.1516,4.1519,4.1526,4.155,4.1555,4.1565,4.1551,4.161,4.1611,4.1612,4.1615,4.1617,4.1618,0,0,0,0,0,4.14,4.1419,4.1421,4.1427,4.1463,4.1487,4.1492,4.1501,4.1497,4.1506,4.1517,4.1518,4.1561,4.1552,4.1558,4.1568,4.1609,4.1611,4.1612,4.1614,4.1616,4.1618,0,0,0,0,0,0,4.1395,4.1422,4.1424,4.1451,4.1467,4.1488,4.15,4.1503,4.152,4.1519,4.1529,4.1533,4.1555,4.1563,4.1554,4.1591,4.1584,4.1587,4.1584,4.1586,4.1588,4.1585,4.1552,0,0,0,0,0,4.1398,4.1417,4.1438,4.1459,4.1467,4.1482,4.1493,4.1499,4.1516,4.1522,4.1535,4.1549,4.1566,4.1576,4.1593,4.1616,4.162,4.1626,4.1627,4.1629,4.1631,4.1644,4.1646,4.1617,4.1617,4.1617,0,0,4.1402,4.1419,4.143,4.1459,4.1472,4.149,4.1488,4.1507,4.152,4.1524,4.1547,4.1556,4.1573,4.1596,4.1607,4.1604,4.164,4.163,4.1631,4.1633,4.1645,4.1648,4.1651,4.1618,4.1618,4.1618,0,0,4.1419,4.1434,4.1454,4.1467,4.1488,4.1498,4.1503,4.1524,4.1531,4.1554,4.1558,4.1573,4.1601,4.1613,4.1623,4.1646,4.1647,4.165,4.1659,4.1671,4.1674,4.1676,4.1684,4.1687,4.1652,4.1652,4.1652,0,4.1421,4.1451,4.1463,4.1482,4.1495,4.1501,4.152,4.1532,4.1557,4.1564,4.1561,4.1598,4.161,4.1636,4.1641,4.1649,4.1654,4.1648,4.1673,4.1675,4.1677,4.1685,4.1688,4.1653,4.1652,4.1652,4.1652,0,4.1452,4.1472,4.1485,4.1511,4.1525,4.1544,4.1557,4.157,4.1575,4.1585,4.1607,4.1622,4.1641,4.1648,4.1652,4.1675,4.1672,4.1671,4.1665,4.168,4.1687,4.169,4.1653,4.1653,4.1653,4.1653,0,0,4.1467,4.15,4.1505,4.1516,4.154,4.1555,4.1574,4.1595,4.1605,4.1621,4.1637,4.1662,4.1661,4.1672,4.1678,4.1689,4.1706,4.1686,4.1686,4.1689,4.1731,4.1732,4.1735,4.1707,4.1707,4.1708,4.173,0,4.1487,4.1524,4.1535,4.1565,4.1583,4.159,4.1607,4.1622,4.1632,4.1648,4.1658,4.1675,4.1673,4.1679,4.1691,4.1701,4.1714,4.17,4.172,4.1721,4.1716,4.1739,4.174,4.176,4.1733,4.1733,4.1733,0,4.1516,4.1535,4.1567,4.1589,4.1597,4.1612,4.1632,4.1648,4.1665,4.1671,4.1684,4.169,4.1708,4.1702,4.1727,4.1717,4.1726,4.1733,4.1734,4.1736,4.1728,4.1742,4.1767,4.177,4.1738,4.1738,4.1737,0,4.1523,4.1557,4.1581,4.1591,4.1617,4.1627,4.1638,4.1655,4.1667,4.1684,4.1692,4.171,4.172,4.1734,4.1743,4.1737,4.1768,4.1762,4.1773,4.1773,4.1779,4.1778,4.1805,4.1785,4.1785,4.1785,4.1784,0,4.1545,4.1564,4.1585,4.1599,4.1621,4.1634,4.1654,4.1665,4.168,4.1696,4.1702,4.1717,4.1728,4.1744,4.1751,4.1772,4.1776,4.1781,4.1782,4.178,4.178,4.1786,4.1785,4.1785,4.1785,4.1785,4.1785,0,4.1557,4.1572,4.1598,4.1622,4.1628,4.1643,4.1662,4.1676,4.1686,4.1706,4.1711,4.1727,4.1745,4.1756,4.1779,4.1784,4.1807,4.1808,4.1802,4.1802,4.1813,4.1812,4.1845,4.185,4.1826,4.1826,4.1826,0,4.157,4.1585,4.1611,4.1623,4.1635,4.1654,4.1666,4.1679,4.1692,4.1713,4.1724,4.1744,4.176,4.1789,4.1802,4.1819,4.1821,4.1831,4.1823,4.1821,4.1821,4.182,4.1822,4.1832,4.1833,4.1833,4.1833,0,4.1591,4.1597,4.1617,4.1639,4.1654,4.1672,4.1689,4.1698,4.1713,4.1726,4.1747,4.176,4.1784,4.1803,4.1822,4.1832,4.1835,4.1836,4.1839,4.1837,4.1833,4.1836,4.1805,4.1835,4.1834,4.1834,4.1834,4.1834,4.1603,4.1618,4.1639,4.166,4.1674,4.169,4.1705,4.1718,4.1735,4.1758,4.1763,4.1785,4.1801,4.1827,4.1838,4.1853,4.1852,4.1857,4.1858,4.1859,4.1859,4.1831,4.1857,4.1857,4.1857,4.1857,4.1857,0,4.1625,4.1639,4.1658,4.1683,4.17,4.1703,4.1722,4.1735,4.1754,4.1771,4.1787,4.1811,4.1829,4.1844,4.1862,4.1872,4.1874,4.1877,4.1876,4.1878,4.186,4.1855,4.1875,4.1875,4.1875,4.1875,4.1875,4.1875,4.1638,4.1663,4.1672,4.1703,4.1717,4.1739,4.175,4.1764,4.1778,4.1804,4.182,4.183,4.1845,4.1866,4.1883,4.1886,4.1893,4.1895,4.1899,4.1881,4.1879,4.1878,4.1873,4.1897,4.1897,4.1916,4.1916,4.1916]}]]